Погода в Аксу-Аюлы

Казахстан     48°46′05″N   73°40′22″E
темп.,
°C
ветер,
м/с
пор.,
м/с
влажн.,
%
обл.,
%
осадки,
мм/ч
давл.,
гПа
погр.,
м
25 февраля, чт
чт2500:00−26ююз5119661 0.0 1023213
03:00−25ююз51595100 0.0 1024529
06:00−22ююз101890100 0.1 10241343
09:00−22зюз91990100 0.2 10261694
12:00−22зюз121987100 0.3 10271442
15:00−23зюз111586100 0.1 10301128
18:00−25зюз71492100 0.1 1033722
21:00−28зюз51396100 0.1 1037468
26 февраля, пт
пт2600:00−30зюз4999100 0.1 1040148
03:00−32юз45100100 0.0 104267
06:00−33юз33100100 0.0 104429
09:00−32ю339896 0.0 104439
12:00−26ююз359396 0.0 1043276
15:00−24ююз459175 0.0 1042409
18:00−27ююв339686 0.0 104231
21:00−30ююв339937 0.0 104420
27 февраля, сб
сб2700:00−31ююв239944 0.0 104319
03:00−31ююв239855 0.0 104219
06:00−29юв239464 0.0 104121
09:00−25ююв2392100 0.0 104095
12:00−20ю4690100 0.0 1038260
15:00−18ю469092 0.0 1036289
18:00−19ююв349387 0.0 103679
21:00−24ююв449655 0.0 103844
28 февраля, вс
вс2800:00−24ююв459641 0.0 103660
03:00−21ююв5129592 0.0 1034242
06:00−17ю7179196 0.0 1031355
09:00−14ю101791100 0.1 1028449
12:00−11ю111990100 0.3 1025588
15:00−8ююз111792100 0.7 1023645
18:00−5ююз101694100 1.7 1022674
21:00−6ююз91594100 0.9 1022581
1 марта, пн
пн100:00−6ююз91694100 1.8 1022568
03:00−5ююз81594100 0.8 1021632
06:00−6ююз71493100 1.5 1021612
09:00−6ююз71394100 0.4 1020592
12:00−4ююз91494100 1.1 1019718
15:00−3юз91394100 0.6 1019768
18:00−3юз71293100 1.1 1019653
21:00−5ююз51189100 0.1 1021411